Weather History for KDEW - April, 2013

Change the Weather History Date:

Wednesday, April 3, 2013

  Actual Average Record
Temperature  
Mean Temperature 49 °F 43 °F  
Max Temperature 62 °F 54 °F 63 °F (2004)
Min Temperature 35 °F 31 °F 18 °F (2007)
Degree Days  
Heating Degree Days 16 22  
Month to date heating degree days 37 68  
Since 1 July heating degree days 5942 6275  
Cooling Degree Days 0 0  
Month to date cooling degree days 0 0  
Year to date cooling degree days 0 0  
Moisture  
Dew Point 38 °F    
Average Humidity 70    
Maximum Humidity 100    
Minimum Humidity 39    
Precipitation  
Precipitation 0.00 in 0.07 in 0.31 in (2001)
Month to date precipitation 0.00 0.22  
Year to date precipitation 3.48 6.54  
Sea Level Pressure  
Sea Level Pressure 30.07 in    
Wind  
Wind Speed 5 mph (South)    
Max Wind Speed 13 mph    
Max Gust Speed 28 mph    
Visibility 10 miles    
Events      
T = Trace of Precipitation, MM = Missing Value Source: NWS Daily Summary

Daily Weather History Graph

Daily Weather History Graph

Search for Another Location

Airport or City:

Trip Planner

Search our weather history database for the weather conditions in past years. The results will help you decide how hot, cold, wet, or windy it might be!

Date:

Astronomy

Apr. 03, 2013 Rise Set
Actual Time 6:23 AM PDT 7:23 PM PDT
Civil Twilight 5:51 AM PDT 7:54 PM PDT
Nautical Twilight 5:13 AM PDT 8:32 PM PDT
Astronomical Twilight 4:33 AM PDT 9:13 PM PDT
Moon 2:36 AM PDT (4/3) 12:12 PM PDT (4/3)
Length of Visible Light 14h 03m
Length of Day
12h 59m
Last Quarter, 43% of the Moon is Illuminated
Apr 3
Last Quarter
Apr 10
New
Apr 18
First Quarter
Apr 25
Full
May 2
Last Quarter

Hourly Weather History & Observations

Time (PDT) Temp. Windchill Dew Point Humidity Pressure Visibility Wind Dir Wind Speed Gust Speed Precip Events Conditions
12:53 AM 44.1 °F 41.5 °F 37.9 °F 79% 30.04 in 10.0 mi SSE 4.6 mph - N/A   Clear
1:53 AM 45.0 °F 40.1 °F 39.0 °F 80% 30.05 in 10.0 mi SSE 9.2 mph - N/A   Clear
2:53 AM 43.0 °F 38.8 °F 37.9 °F 82% 30.06 in 10.0 mi South 6.9 mph - N/A   Clear
3:53 AM 42.1 °F 37.1 °F 37.9 °F 85% 30.07 in 10.0 mi SSE 8.1 mph - N/A   Clear
4:53 AM 43.0 °F 38.2 °F 39.0 °F 86% 30.08 in 10.0 mi SE 8.1 mph - N/A   Clear
5:53 AM 39.9 °F 35.1 °F 37.0 °F 89% 30.09 in 10.0 mi South 6.9 mph - N/A   Clear
6:53 AM 36.0 °F - 35.1 °F 97% 30.12 in 10.0 mi Calm Calm - N/A   Clear
7:53 AM 44.1 °F - 39.9 °F 85% 30.13 in 10.0 mi Calm Calm - N/A   Clear
8:53 AM 48.0 °F - 39.9 °F 74% 30.12 in 10.0 mi South 6.9 mph - N/A   Clear
9:53 AM 50.0 °F - 41.0 °F 71% 30.13 in 10.0 mi SSE 8.1 mph - N/A   Mostly Cloudy
10:26 AM 51.8 °F - 41.0 °F 67% 30.12 in 10.0 mi South 8.1 mph - N/A   Scattered Clouds
10:53 AM 53.1 °F - 41.0 °F 64% 30.12 in 10.0 mi SW 9.2 mph - N/A   Mostly Cloudy
11:06 AM 53.6 °F - 39.2 °F 58% 30.11 in 10.0 mi SW 5.8 mph - N/A   Scattered Clouds
11:53 AM 55.0 °F - 39.9 °F 57% 30.11 in 10.0 mi SW 8.1 mph - N/A   Mostly Cloudy
12:53 PM 57.0 °F - 37.9 °F 49% 30.09 in 10.0 mi Variable 5.8 mph - N/A   Scattered Clouds
1:53 PM 57.9 °F - 37.0 °F 46% 30.08 in 10.0 mi SSW 5.8 mph - N/A   Mostly Cloudy
2:53 PM 61.0 °F - 39.0 °F 44% 30.07 in 10.0 mi South 8.1 mph - N/A   Scattered Clouds
3:53 PM 62.1 °F - 37.9 °F 41% 30.06 in 10.0 mi SSW 10.4 mph - N/A   Scattered Clouds
4:53 PM 61.0 °F - 37.0 °F 41% 30.04 in 10.0 mi SE 5.8 mph - N/A   Scattered Clouds
5:53 PM 61.0 °F - 35.1 °F 38% 30.03 in 10.0 mi SSW 5.8 mph - N/A   Clear
6:53 PM 57.0 °F - 36.0 °F 45% 30.04 in 7.0 mi SSW 3.5 mph - N/A   Clear
7:53 PM 48.0 °F - 39.0 °F 71% 30.03 in 10.0 mi Calm Calm - N/A   Clear
8:53 PM 46.0 °F - 37.9 °F 73% 30.04 in 10.0 mi Calm Calm - N/A   Clear
9:53 PM 43.0 °F - 36.0 °F 76% 30.04 in 10.0 mi Calm Calm - N/A   Clear
10:53 PM 42.1 °F - 36.0 °F 79% 30.02 in 10.0 mi Calm Calm - N/A   Clear
11:53 PM 39.9 °F - 37.0 °F 89% 30.03 in 10.0 mi Calm Calm - N/A   Clear